Time,TemperatureF,DewpointF,PressureIn,WindDirection,WindDirectionDegrees,WindSpeedMPH,WindSpeedGustMPH,Humidity,HourlyPrecipIn,Conditions,Clouds,dailyrainin,SoftwareType,DateUTC
2013-12-05 00:04:00,11.0,7.6,29.76,WNW,282,2.0,13.0,86,0.00,,,0.00,VWS V14.01,2013-12-05 06:04:00,
2013-12-05 00:09:00,11.0,7.6,29.76,WNW,294,12.0,13.0,86,0.00,,,0.00,VWS V14.01,2013-12-05 06:09:00,
2013-12-05 00:14:00,10.9,7.5,29.77,WSW,238,3.0,18.0,86,0.00,,,0.00,VWS V14.01,2013-12-05 06:14:00,
2013-12-05 00:19:00,10.8,7.4,29.77,WSW,237,4.0,18.0,86,0.00,,,0.00,VWS V14.01,2013-12-05 06:19:00,
2013-12-05 00:24:00,10.7,7.1,29.78,WSW,237,7.0,18.0,85,0.00,,,0.00,VWS V14.01,2013-12-05 06:24:00,
2013-12-05 00:29:00,10.5,7.2,29.78,WSW,256,4.0,18.0,86,0.00,,,0.00,VWS V14.01,2013-12-05 06:29:00,
2013-12-05 00:34:00,10.4,7.1,29.78,WSW,245,7.0,12.0,86,0.00,,,0.00,VWS V14.01,2013-12-05 06:34:00,
2013-12-05 00:39:00,10.3,6.9,29.78,SSW,193,5.0,14.0,86,0.00,,,0.00,VWS V14.01,2013-12-05 06:39:00,
2013-12-05 00:44:00,10.1,6.8,29.78,WSW,252,7.0,14.0,86,0.00,,,0.00,VWS V14.01,2013-12-05 06:44:00,
2013-12-05 00:50:00,10.0,6.7,29.78,West,275,1.0,14.0,86,0.00,,,0.00,VWS V14.01,2013-12-05 06:50:00,
2013-12-05 00:55:00,9.9,6.6,29.78,SW,228,1.0,14.0,86,0.00,,,0.00,VWS V14.01,2013-12-05 06:55:00,
2013-12-05 01:00:00,9.7,6.4,29.78,SW,222,11.0,14.0,86,0.00,,,0.00,VWS V14.01,2013-12-05 07:00:00,
2013-12-05 01:05:00,9.6,6.3,29.78,West,274,15.0,16.0,86,0.00,,,0.00,VWS V14.01,2013-12-05 07:05:00,
2013-12-05 01:10:00,9.5,6.2,29.79,WNW,285,2.0,16.0,86,0.00,,,0.00,VWS V14.01,2013-12-05 07:10:00,
2013-12-05 01:15:00,9.4,6.1,29.79,SW,214,12.0,16.0,86,0.00,,,0.00,VWS V14.01,2013-12-05 07:15:00,
2013-12-05 01:20:00,9.2,5.6,29.80,WNW,291,6.0,17.0,85,0.00,,,0.00,VWS V14.01,2013-12-05 07:20:00,
2013-12-05 01:25:00,9.2,5.9,29.80,WNW,283,3.0,17.0,86,0.00,,,0.00,VWS V14.01,2013-12-05 07:25:00,
2013-12-05 01:30:00,9.1,5.8,29.80,West,269,14.0,17.0,86,0.00,,,0.00,VWS V14.01,2013-12-05 07:30:00,
2013-12-05 01:35:00,8.9,5.6,29.81,SW,222,11.0,17.0,86,0.00,,,0.00,VWS V14.01,2013-12-05 07:35:00,
2013-12-05 01:40:00,8.8,5.2,29.81,West,280,4.0,17.0,85,0.00,,,0.00,VWS V14.01,2013-12-05 07:40:00,
2013-12-05 01:45:00,8.6,5.0,29.81,West,268,12.0,17.0,85,0.00,,,0.00,VWS V14.01,2013-12-05 07:45:00,
2013-12-05 01:50:00,8.5,4.9,29.82,SSW,210,1.0,18.0,85,0.00,,,0.00,VWS V14.01,2013-12-05 07:50:00,
2013-12-05 01:55:00,8.4,4.8,29.82,West,262,9.0,18.0,85,0.00,,,0.00,VWS V14.01,2013-12-05 07:55:00,
2013-12-05 02:00:00,8.3,4.7,29.82,WNW,291,5.0,18.0,85,0.00,,,0.00,VWS V14.01,2013-12-05 08:00:00,
2013-12-05 02:05:00,8.2,4.6,29.82,West,264,0.0,19.0,85,0.00,,,0.00,VWS V14.01,2013-12-05 08:05:00,
2013-12-05 02:11:00,8.0,4.2,29.81,NW,310,3.0,19.0,84,0.00,,,0.00,VWS V14.01,2013-12-05 08:11:00,
2013-12-05 02:16:00,7.9,4.1,29.81,WNW,301,2.0,19.0,84,0.00,,,0.00,VWS V14.01,2013-12-05 08:16:00,
2013-12-05 02:21:00,7.7,3.9,29.83,NNW,342,6.0,24.0,84,0.00,,,0.00,VWS V14.01,2013-12-05 08:21:00,
2013-12-05 02:26:00,7.7,3.9,29.84,West,261,7.0,24.0,84,0.00,,,0.00,VWS V14.01,2013-12-05 08:26:00,
2013-12-05 02:31:00,7.6,3.8,29.84,WSW,258,3.0,10.0,84,0.00,,,0.00,VWS V14.01,2013-12-05 08:31:00,
2013-12-05 02:36:00,7.5,3.7,29.85,West,276,4.0,16.0,84,0.00,,,0.00,VWS V14.01,2013-12-05 08:36:00,
2013-12-05 02:41:00,7.4,3.8,29.86,WNW,289,4.0,16.0,85,0.00,,,0.00,VWS V14.01,2013-12-05 08:41:00,
2013-12-05 02:46:00,7.3,3.8,29.86,SSW,204,6.0,16.0,85,0.00,,,0.00,VWS V14.01,2013-12-05 08:46:00,
2013-12-05 02:51:00,7.2,3.4,29.86,WNW,282,4.0,16.0,84,0.00,,,0.00,VWS V14.01,2013-12-05 08:51:00,
2013-12-05 02:56:00,7.1,3.3,29.87,WSW,246,12.0,16.0,84,0.00,,,0.00,VWS V14.01,2013-12-05 08:56:00,
2013-12-05 03:01:00,7.0,3.2,29.87,WSW,241,6.0,14.0,84,0.00,,,0.00,VWS V14.01,2013-12-05 09:01:00,
2013-12-05 03:06:00,6.9,3.1,29.87,West,274,4.0,14.0,84,0.00,,,0.00,VWS V14.01,2013-12-05 09:06:00,
2013-12-05 03:11:00,6.8,3.0,29.87,NW,316,1.0,15.0,84,0.00,,,0.00,VWS V14.01,2013-12-05 09:11:00,
2013-12-05 03:16:00,6.7,2.9,29.88,WNW,297,6.0,16.0,84,0.00,,,0.00,VWS V14.01,2013-12-05 09:16:00,
2013-12-05 03:21:00,6.7,3.2,29.88,West,266,7.0,16.0,85,0.00,,,0.00,VWS V14.01,2013-12-05 09:21:00,
2013-12-05 03:27:00,6.6,3.1,29.87,West,267,10.0,16.0,85,0.00,,,0.00,VWS V14.01,2013-12-05 09:27:00,
2013-12-05 03:32:00,6.5,3.0,29.88,West,264,10.0,12.0,85,0.00,,,0.00,VWS V14.01,2013-12-05 09:32:00,
2013-12-05 03:37:00,6.5,2.7,29.88,SW,223,9.0,17.0,84,0.00,,,0.00,VWS V14.01,2013-12-05 09:37:00,
2013-12-05 03:42:00,6.5,2.7,29.88,WNW,285,4.0,17.0,84,0.00,,,0.00,VWS V14.01,2013-12-05 09:42:00,
2013-12-05 03:47:00,6.4,2.6,29.89,West,260,8.0,18.0,84,0.00,,,0.00,VWS V14.01,2013-12-05 09:47:00,
2013-12-05 03:52:00,6.4,2.6,29.89,West,265,9.0,18.0,84,0.00,,,0.00,VWS V14.01,2013-12-05 09:52:00,
2013-12-05 03:57:00,6.4,2.6,29.90,West,272,7.0,18.0,84,0.00,,,0.00,VWS V14.01,2013-12-05 09:57:00,
2013-12-05 04:02:00,6.3,2.5,29.90,West,278,7.0,11.0,84,0.00,,,0.00,VWS V14.01,2013-12-05 10:02:00,
2013-12-05 04:07:00,6.2,2.4,29.90,WNW,302,6.0,14.0,84,0.00,,,0.00,VWS V14.01,2013-12-05 10:07:00,
2013-12-05 04:12:00,6.2,2.4,29.91,West,270,5.0,14.0,84,0.00,,,0.00,VWS V14.01,2013-12-05 10:12:00,
2013-12-05 04:17:00,6.1,2.3,29.91,South,186,4.0,14.0,84,0.00,,,0.00,VWS V14.01,2013-12-05 10:17:00,
2013-12-05 04:22:00,6.1,2.6,29.92,NW,305,4.0,14.0,85,0.00,,,0.00,VWS V14.01,2013-12-05 10:22:00,
2013-12-05 04:27:00,6.0,2.5,29.92,WNW,284,2.0,14.0,85,0.00,,,0.00,VWS V14.01,2013-12-05 10:27:00,
2013-12-05 04:32:00,6.0,2.5,29.93,WSW,243,3.0,9.0,85,0.00,,,0.00,VWS V14.01,2013-12-05 10:32:00,
2013-12-05 04:37:00,6.0,2.5,29.93,South,187,4.0,11.0,85,0.00,,,0.00,VWS V14.01,2013-12-05 10:37:00,
2013-12-05 04:42:00,6.0,2.5,29.93,SW,227,10.0,15.0,85,0.00,,,0.00,VWS V14.01,2013-12-05 10:42:00,
2013-12-05 04:47:00,6.0,2.5,29.94,WNW,302,3.0,15.0,85,0.00,,,0.00,VWS V14.01,2013-12-05 10:47:00,
2013-12-05 04:52:00,6.0,2.5,29.94,WNW,287,7.0,15.0,85,0.00,,,0.00,VWS V14.01,2013-12-05 10:52:00,
2013-12-05 04:57:00,6.0,2.5,29.94,West,281,4.0,18.0,85,0.00,,,0.00,VWS V14.01,2013-12-05 10:57:00,
2013-12-05 05:02:00,6.0,2.5,29.95,West,268,5.0,16.0,85,0.00,,,0.00,VWS V14.01,2013-12-05 11:02:00,
2013-12-05 05:07:00,6.0,2.5,29.95,NNE,14,2.0,16.0,85,0.00,,,0.00,VWS V14.01,2013-12-05 11:07:00,
2013-12-05 05:12:00,6.0,2.5,29.95,West,275,6.0,16.0,85,0.00,,,0.00,VWS V14.01,2013-12-05 11:12:00,
2013-12-05 05:18:00,6.0,2.5,29.96,NW,326,1.0,16.0,85,0.00,,,0.00,VWS V14.01,2013-12-05 11:18:00,
2013-12-05 05:23:00,6.0,2.5,29.96,NNW,330,0.0,16.0,85,0.00,,,0.00,VWS V14.01,2013-12-05 11:23:00,
2013-12-05 05:28:00,6.0,2.5,29.96,WNW,291,5.0,16.0,85,0.00,,,0.00,VWS V14.01,2013-12-05 11:28:00,
2013-12-05 05:33:00,5.9,2.4,29.96,SW,234,2.0,18.0,85,0.00,,,0.00,VWS V14.01,2013-12-05 11:33:00,
2013-12-05 05:38:00,6.0,2.5,29.97,West,266,11.0,18.0,85,0.00,,,0.00,VWS V14.01,2013-12-05 11:38:00,
2013-12-05 05:43:00,5.9,2.4,29.97,WSW,256,4.0,18.0,85,0.00,,,0.00,VWS V14.01,2013-12-05 11:43:00,
2013-12-05 05:48:00,5.9,2.4,29.97,WNW,287,5.0,18.0,85,0.00,,,0.00,VWS V14.01,2013-12-05 11:48:00,
2013-12-05 05:53:00,5.9,2.4,29.97,West,273,11.0,18.0,85,0.00,,,0.00,VWS V14.01,2013-12-05 11:53:00,
2013-12-05 05:58:00,5.9,2.4,29.97,West,260,10.0,18.0,85,0.00,,,0.00,VWS V14.01,2013-12-05 11:58:00,
2013-12-05 06:03:00,5.9,2.1,29.97,SSE,159,17.0,17.0,84,0.00,,,0.00,VWS V14.01,2013-12-05 12:03:00,
2013-12-05 06:08:00,5.8,2.0,29.97,West,260,4.0,17.0,84,0.00,,,0.00,VWS V14.01,2013-12-05 12:08:00,
2013-12-05 06:13:00,5.7,1.9,29.98,WNW,301,4.0,17.0,84,0.00,,,0.00,VWS V14.01,2013-12-05 12:13:00,
2013-12-05 06:18:00,5.6,1.8,29.98,WNW,292,4.0,17.0,84,0.00,,,0.00,VWS V14.01,2013-12-05 12:18:00,
2013-12-05 06:23:00,5.6,1.8,29.99,WNW,292,8.0,17.0,84,0.00,,,0.00,VWS V14.01,2013-12-05 12:23:00,
2013-12-05 06:28:00,5.5,1.7,29.99,SW,227,8.0,17.0,84,0.00,,,0.00,VWS V14.01,2013-12-05 12:28:00,
2013-12-05 06:33:00,5.4,1.6,30.00,WNW,288,5.0,10.0,84,0.00,,,0.00,VWS V14.01,2013-12-05 12:33:00,
2013-12-05 06:38:00,5.4,1.9,30.00,WNW,284,3.0,10.0,85,0.00,,,0.00,VWS V14.01,2013-12-05 12:38:00,
2013-12-05 06:43:00,5.3,1.5,30.00,WSW,253,4.0,13.0,84,0.00,,,0.00,VWS V14.01,2013-12-05 12:43:00,
2013-12-05 06:48:00,5.3,1.5,30.00,WNW,289,5.0,16.0,84,0.00,,,0.00,VWS V14.01,2013-12-05 12:48:00,
2013-12-05 06:54:00,5.2,1.4,30.00,West,263,4.0,16.0,84,0.00,,,0.00,VWS V14.01,2013-12-05 12:54:00,
2013-12-05 06:59:00,5.1,1.6,30.01,SW,228,6.0,16.0,85,0.00,,,0.00,VWS V14.01,2013-12-05 12:59:00,
2013-12-05 07:04:00,5.1,1.3,30.01,West,274,5.0,17.0,84,0.00,,,0.00,VWS V14.01,2013-12-05 13:04:00,
2013-12-05 07:09:00,5.0,1.2,30.01,WNW,303,3.0,17.0,84,0.00,,,0.00,VWS V14.01,2013-12-05 13:09:00,
2013-12-05 07:14:00,4.8,0.8,30.01,WNW,285,3.0,17.0,83,0.00,,,0.00,VWS V14.01,2013-12-05 13:14:00,
2013-12-05 07:19:00,4.7,0.7,30.02,NW,314,5.0,17.0,83,0.00,,,0.00,VWS V14.01,2013-12-05 13:19:00,
2013-12-05 07:24:00,4.5,0.5,30.03,WNW,283,1.0,17.0,83,0.00,,,0.00,VWS V14.01,2013-12-05 13:24:00,
2013-12-05 07:29:00,4.4,0.4,30.03,West,278,5.0,17.0,83,0.00,,,0.00,VWS V14.01,2013-12-05 13:29:00,
2013-12-05 07:34:00,4.2,0.2,30.03,SSW,206,5.0,8.0,83,0.00,,,0.00,VWS V14.01,2013-12-05 13:34:00,
2013-12-05 07:39:00,4.1,-0.2,30.04,SSE,156,2.0,14.0,82,0.00,,,0.00,VWS V14.01,2013-12-05 13:39:00,
2013-12-05 07:44:00,3.9,-0.4,30.05,WSW,241,4.0,14.0,82,0.00,,,0.00,VWS V14.01,2013-12-05 13:44:00,
2013-12-05 07:49:00,3.8,-0.2,30.04,WNW,295,4.0,15.0,83,0.00,,,0.00,VWS V14.01,2013-12-05 13:49:00,
2013-12-05 07:54:00,3.7,-0.3,30.04,WNW,295,8.0,16.0,83,0.00,,,0.00,VWS V14.01,2013-12-05 13:54:00,
2013-12-05 07:59:00,3.6,-0.4,30.04,WNW,284,6.0,16.0,83,0.00,,,0.00,VWS V14.01,2013-12-05 13:59:00,
2013-12-05 08:04:00,3.6,-0.4,30.05,West,276,7.0,9.0,83,0.00,,,0.00,VWS V14.01,2013-12-05 14:04:00,
2013-12-05 08:09:00,3.5,-0.5,30.06,NW,304,3.0,10.0,83,0.00,,,0.00,VWS V14.01,2013-12-05 14:09:00,
2013-12-05 08:14:00,3.5,-0.5,30.06,WNW,290,1.0,15.0,83,0.00,,,0.00,VWS V14.01,2013-12-05 14:14:00,
2013-12-05 08:19:00,3.6,-0.4,30.07,WNW,295,4.0,15.0,83,0.00,,,0.00,VWS V14.01,2013-12-05 14:19:00,
2013-12-05 08:25:00,3.6,-0.4,30.07,NW,317,10.0,15.0,83,0.00,,,0.00,VWS V14.01,2013-12-05 14:25:00,
2013-12-05 08:30:00,3.6,-0.4,30.07,West,262,5.0,15.0,83,0.00,,,0.00,VWS V14.01,2013-12-05 14:30:00,
2013-12-05 08:35:00,3.6,-0.4,30.07,WNW,289,6.0,12.0,83,0.00,,,0.00,VWS V14.01,2013-12-05 14:35:00,
2013-12-05 08:40:00,3.7,-0.3,30.08,WSW,250,6.0,12.0,83,0.00,,,0.00,VWS V14.01,2013-12-05 14:40:00,
2013-12-05 08:45:00,3.8,-0.2,30.08,West,280,2.0,14.0,83,0.00,,,0.00,VWS V14.01,2013-12-05 14:45:00,
2013-12-05 08:50:00,3.9,-0.1,30.08,West,263,8.0,14.0,83,0.00,,,0.00,VWS V14.01,2013-12-05 14:50:00,
2013-12-05 08:55:00,4.1,0.3,30.08,NW,310,8.0,15.0,84,0.00,,,0.00,VWS V14.01,2013-12-05 14:55:00,
2013-12-05 09:00:00,4.1,0.1,30.08,WNW,295,8.0,15.0,83,0.00,,,0.00,VWS V14.01,2013-12-05 15:00:00,
2013-12-05 09:05:00,4.2,0.2,30.09,SE,128,2.0,10.0,83,0.00,,,0.00,VWS V14.01,2013-12-05 15:05:00,
2013-12-05 09:10:00,4.3,0.3,30.09,South,185,8.0,15.0,83,0.00,,,0.00,VWS V14.01,2013-12-05 15:10:00,
2013-12-05 09:15:00,4.3,0.0,30.10,WSW,251,6.0,15.0,82,0.00,,,0.00,VWS V14.01,2013-12-05 15:15:00,
2013-12-05 09:20:00,4.4,0.4,30.10,WNW,293,3.0,15.0,83,0.00,,,0.00,VWS V14.01,2013-12-05 15:20:00,
2013-12-05 09:25:00,4.5,0.2,30.10,WNW,302,7.0,15.0,82,0.00,,,0.00,VWS V14.01,2013-12-05 15:25:00,
2013-12-05 09:31:00,4.5,0.2,30.11,WNW,290,8.0,15.0,82,0.00,,,0.00,VWS V14.01,2013-12-05 15:31:00,
2013-12-05 09:36:00,4.7,0.4,30.11,WNW,284,5.0,8.0,82,0.00,,,0.00,VWS V14.01,2013-12-05 15:36:00,
2013-12-05 09:41:00,4.7,0.2,30.12,WNW,294,7.0,14.0,81,0.00,,,0.00,VWS V14.01,2013-12-05 15:41:00,
2013-12-05 09:46:00,4.8,0.5,30.12,WNW,302,5.0,15.0,82,0.00,,,0.00,VWS V14.01,2013-12-05 15:46:00,
2013-12-05 09:51:00,4.8,0.3,30.12,WNW,286,17.0,17.0,81,0.00,,,0.00,VWS V14.01,2013-12-05 15:51:00,
2013-12-05 09:56:00,4.8,0.3,30.13,WNW,282,4.0,18.0,81,0.00,,,0.00,VWS V14.01,2013-12-05 15:56:00,
2013-12-05 10:01:00,4.9,0.6,30.14,West,275,3.0,6.0,82,0.00,,,0.00,VWS V14.01,2013-12-05 16:01:00,
2013-12-05 10:06:00,5.0,0.5,30.14,South,172,2.0,16.0,81,0.00,,,0.00,VWS V14.01,2013-12-05 16:06:00,
2013-12-05 10:11:00,5.1,0.6,30.14,SW,219,8.0,16.0,81,0.00,,,0.00,VWS V14.01,2013-12-05 16:11:00,
2013-12-05 10:16:00,5.1,0.6,30.15,SW,223,0.0,16.0,81,0.00,,,0.00,VWS V14.01,2013-12-05 16:16:00,
2013-12-05 10:21:00,5.1,0.3,30.15,SW,234,4.0,16.0,80,0.00,,,0.00,VWS V14.01,2013-12-05 16:21:00,
2013-12-05 10:26:00,5.0,0.2,30.15,West,280,7.0,18.0,80,0.00,,,0.00,VWS V14.01,2013-12-05 16:26:00,
2013-12-05 10:31:00,5.1,0.3,30.16,SW,222,7.0,9.0,80,0.00,,,0.00,VWS V14.01,2013-12-05 16:31:00,
2013-12-05 10:36:00,5.2,0.4,30.16,WNW,289,4.0,12.0,80,0.00,,,0.00,VWS V14.01,2013-12-05 16:36:00,
2013-12-05 10:41:00,5.4,0.6,30.16,WSW,249,5.0,18.0,80,0.00,,,0.00,VWS V14.01,2013-12-05 16:41:00,
2013-12-05 10:46:00,5.3,0.5,30.16,West,274,5.0,18.0,80,0.00,,,0.00,VWS V14.01,2013-12-05 16:46:00,
2013-12-05 10:51:00,5.3,0.2,30.16,WNW,284,1.0,18.0,79,0.00,,,0.00,VWS V14.01,2013-12-05 16:51:00,
2013-12-05 10:56:00,5.5,0.7,30.15,WNW,293,4.0,18.0,80,0.00,,,0.00,VWS V14.01,2013-12-05 16:56:00,
2013-12-05 11:02:00,5.6,0.8,30.15,WNW,291,3.0,8.0,80,0.00,,,0.00,VWS V14.01,2013-12-05 17:02:00,
2013-12-05 11:07:00,5.6,0.5,30.15,West,273,5.0,11.0,79,0.00,,,0.00,VWS V14.01,2013-12-05 17:07:00,
2013-12-05 11:12:00,5.6,0.5,30.15,WNW,293,5.0,13.0,79,0.00,,,0.00,VWS V14.01,2013-12-05 17:12:00,
2013-12-05 11:17:00,5.4,0.0,30.15,West,273,11.0,19.0,78,0.00,,,0.00,VWS V14.01,2013-12-05 17:17:00,
2013-12-05 11:22:00,5.3,-0.1,30.15,SW,216,2.0,19.0,78,0.00,,,0.00,VWS V14.01,2013-12-05 17:22:00,
2013-12-05 11:27:00,5.3,0.2,30.15,West,280,4.0,19.0,79,0.00,,,0.00,VWS V14.01,2013-12-05 17:27:00,
2013-12-05 11:32:00,5.5,0.4,30.16,WNW,294,8.0,15.0,79,0.00,,,0.00,VWS V14.01,2013-12-05 17:32:00,
2013-12-05 11:37:00,5.6,0.2,30.15,WNW,283,16.0,19.0,78,0.00,,,0.00,VWS V14.01,2013-12-05 17:37:00,
2013-12-05 11:42:00,5.6,0.5,30.15,WNW,293,4.0,19.0,79,0.00,,,0.00,VWS V14.01,2013-12-05 17:42:00,
2013-12-05 11:47:00,5.9,0.8,30.15,NW,312,7.0,19.0,79,0.00,,,0.00,VWS V14.01,2013-12-05 17:47:00,
2013-12-05 11:52:00,5.9,0.8,30.15,West,272,7.0,19.0,79,0.00,,,0.00,VWS V14.01,2013-12-05 17:52:00,
2013-12-05 11:57:00,6.0,0.9,30.16,WSW,237,4.0,19.0,79,0.00,,,0.00,VWS V14.01,2013-12-05 17:57:00,
2013-12-05 12:02:00,6.2,1.1,30.16,NW,325,5.0,11.0,79,0.00,,,0.00,VWS V14.01,2013-12-05 18:02:00,
2013-12-05 12:07:00,6.4,1.3,30.16,WNW,291,4.0,15.0,79,0.00,,,0.00,VWS V14.01,2013-12-05 18:07:00,
2013-12-05 12:12:00,6.5,1.1,30.16,West,279,5.0,15.0,78,0.00,,,0.00,VWS V14.01,2013-12-05 18:12:00,
2013-12-05 12:17:00,6.4,1.0,30.16,WNW,291,3.0,16.0,78,0.00,,,0.00,VWS V14.01,2013-12-05 18:17:00,
2013-12-05 12:22:00,6.4,1.0,30.16,NW,310,3.0,16.0,78,0.00,,,0.00,VWS V14.01,2013-12-05 18:22:00,
2013-12-05 12:27:00,6.6,1.2,30.16,WNW,289,7.0,20.0,78,0.00,,,0.00,VWS V14.01,2013-12-05 18:27:00,
2013-12-05 12:32:00,6.7,1.3,30.16,NW,325,3.0,9.0,78,0.00,,,0.00,VWS V14.01,2013-12-05 18:32:00,
2013-12-05 12:37:00,6.9,1.8,30.17,WNW,303,6.0,15.0,79,0.00,,,0.00,VWS V14.01,2013-12-05 18:37:00,
2013-12-05 12:43:00,6.8,1.1,30.17,WNW,289,7.0,16.0,77,0.00,,,0.00,VWS V14.01,2013-12-05 18:43:00,
2013-12-05 12:48:00,6.8,1.4,30.17,WNW,285,3.0,16.0,78,0.00,,,0.00,VWS V14.01,2013-12-05 18:48:00,
2013-12-05 12:53:00,6.9,1.2,30.17,West,259,9.0,16.0,77,0.00,,,0.00,VWS V14.01,2013-12-05 18:53:00,
2013-12-05 12:58:00,6.8,1.1,30.17,NW,310,5.0,17.0,77,0.00,,,0.00,VWS V14.01,2013-12-05 18:58:00,
2013-12-05 13:03:00,6.8,1.4,30.17,WSW,257,9.0,15.0,78,0.00,,,0.00,VWS V14.01,2013-12-05 19:03:00,
2013-12-05 13:08:00,6.8,1.1,30.18,West,278,10.0,22.0,77,0.00,,,0.00,VWS V14.01,2013-12-05 19:08:00,
2013-12-05 13:13:00,6.9,1.8,30.18,West,262,7.0,22.0,79,0.00,,,0.00,VWS V14.01,2013-12-05 19:13:00,
2013-12-05 13:18:00,7.1,2.0,30.18,West,272,6.0,22.0,79,0.00,,,0.00,VWS V14.01,2013-12-05 19:18:00,
2013-12-05 13:23:00,7.3,1.9,30.18,WNW,286,6.0,22.0,78,0.00,,,0.00,VWS V14.01,2013-12-05 19:23:00,
2013-12-05 13:28:00,7.2,1.8,30.18,WSW,251,12.0,22.0,78,0.00,,,0.00,VWS V14.01,2013-12-05 19:28:00,
2013-12-05 13:33:00,7.2,1.8,30.18,WNW,299,9.0,17.0,78,0.00,,,0.00,VWS V14.01,2013-12-05 19:33:00,
2013-12-05 13:38:00,7.1,1.4,30.19,West,276,12.0,17.0,77,0.00,,,0.00,VWS V14.01,2013-12-05 19:38:00,
2013-12-05 13:43:00,7.1,1.4,30.18,WNW,301,4.0,17.0,77,0.00,,,0.00,VWS V14.01,2013-12-05 19:43:00,
2013-12-05 13:48:00,7.1,1.4,30.18,WNW,288,11.0,17.0,77,0.00,,,0.00,VWS V14.01,2013-12-05 19:48:00,
2013-12-05 13:53:00,7.0,1.3,30.18,WNW,297,6.0,22.0,77,0.00,,,0.00,VWS V14.01,2013-12-05 19:53:00,
2013-12-05 13:58:00,7.0,1.6,30.19,West,262,7.0,22.0,78,0.00,,,0.00,VWS V14.01,2013-12-05 19:58:00,
2013-12-05 14:03:00,7.1,1.7,30.18,NNW,328,1.0,15.0,78,0.00,,,0.00,VWS V14.01,2013-12-05 20:03:00,
2013-12-05 14:08:00,7.2,1.8,30.18,WSW,245,13.0,15.0,78,0.00,,,0.00,VWS V14.01,2013-12-05 20:08:00,
2013-12-05 14:13:00,7.2,1.5,30.19,WNW,296,4.0,15.0,77,0.00,,,0.00,VWS V14.01,2013-12-05 20:13:00,
2013-12-05 14:18:00,7.2,1.5,30.19,WNW,303,9.0,17.0,77,0.00,,,0.00,VWS V14.01,2013-12-05 20:18:00,
2013-12-05 14:24:00,7.2,1.5,30.19,WNW,285,10.0,17.0,77,0.00,,,0.00,VWS V14.01,2013-12-05 20:24:00,
2013-12-05 14:29:00,7.2,1.5,30.19,West,263,6.0,17.0,77,0.00,,,0.00,VWS V14.01,2013-12-05 20:29:00,
2013-12-05 14:34:00,7.4,2.0,30.19,WNW,292,5.0,7.0,78,0.00,,,0.00,VWS V14.01,2013-12-05 20:34:00,
2013-12-05 14:39:00,7.4,1.7,30.19,SW,230,4.0,11.0,77,0.00,,,0.00,VWS V14.01,2013-12-05 20:39:00,
2013-12-05 14:44:00,7.4,1.7,30.19,WSW,251,11.0,12.0,77,0.00,,,0.00,VWS V14.01,2013-12-05 20:44:00,
2013-12-05 14:49:00,7.3,1.3,30.19,NW,312,0.0,14.0,76,0.00,,,0.00,VWS V14.01,2013-12-05 20:49:00,
2013-12-05 14:54:00,7.3,1.6,30.19,NW,305,7.0,14.0,77,0.00,,,0.00,VWS V14.01,2013-12-05 20:54:00,
2013-12-05 14:59:00,7.2,1.5,30.19,WNW,285,3.0,14.0,77,0.00,,,0.00,VWS V14.01,2013-12-05 20:59:00,
2013-12-05 15:04:00,7.1,1.4,30.19,NW,314,2.0,13.0,77,0.00,,,0.00,VWS V14.01,2013-12-05 21:04:00,
2013-12-05 15:09:00,7.1,1.4,30.19,WNW,298,2.0,14.0,77,0.00,,,0.00,VWS V14.01,2013-12-05 21:09:00,
2013-12-05 15:14:00,7.0,1.3,30.19,WSW,241,11.0,16.0,77,0.00,,,0.00,VWS V14.01,2013-12-05 21:14:00,
2013-12-05 15:19:00,6.9,1.2,30.19,West,265,11.0,16.0,77,0.00,,,0.00,VWS V14.01,2013-12-05 21:19:00,
2013-12-05 15:24:00,6.9,1.2,30.19,West,279,6.0,16.0,77,0.00,,,0.00,VWS V14.01,2013-12-05 21:24:00,
2013-12-05 15:29:00,6.7,1.0,30.19,West,276,7.0,16.0,77,0.00,,,0.00,VWS V14.01,2013-12-05 21:29:00,
2013-12-05 15:34:00,6.5,0.6,30.19,WSW,249,9.0,16.0,76,0.00,,,0.00,VWS V14.01,2013-12-05 21:34:00,
2013-12-05 15:39:00,6.3,0.6,30.20,WNW,300,2.0,16.0,77,0.00,,,0.00,VWS V14.01,2013-12-05 21:39:00,
2013-12-05 15:44:00,6.2,0.6,30.20,WSW,253,6.0,16.0,77,0.00,,,0.00,VWS V14.01,2013-12-05 21:44:00,
2013-12-05 15:49:00,6.1,0.4,30.20,WNW,298,3.0,16.0,77,0.00,,,0.00,VWS V14.01,2013-12-05 21:49:00,
2013-12-05 15:54:00,6.0,0.3,30.20,WNW,301,7.0,16.0,77,0.00,,,0.00,VWS V14.01,2013-12-05 21:54:00,
2013-12-05 15:59:00,5.9,0.3,30.20,NW,320,2.0,16.0,77,0.00,,,0.00,VWS V14.01,2013-12-05 21:59:00,
2013-12-05 16:04:00,5.8,0.4,30.21,WNW,303,1.0,8.0,78,0.00,,,0.00,VWS V14.01,2013-12-05 22:04:00,
2013-12-05 16:09:00,5.6,0.2,30.21,WNW,292,10.0,12.0,78,0.00,,,0.00,VWS V14.01,2013-12-05 22:09:00,
2013-12-05 16:15:00,5.5,0.1,30.21,WNW,299,4.0,15.0,78,0.00,,,0.00,VWS V14.01,2013-12-05 22:15:00,
2013-12-05 16:20:00,5.4,0.3,30.22,WNW,290,5.0,15.0,79,0.00,,,0.00,VWS V14.01,2013-12-05 22:20:00,
2013-12-05 16:25:00,5.2,-0.2,30.22,West,274,3.0,15.0,78,0.00,,,0.00,VWS V14.01,2013-12-05 22:25:00,
2013-12-05 16:30:00,5.0,-0.3,30.22,WNW,289,8.0,15.0,78,0.00,,,0.00,VWS V14.01,2013-12-05 22:30:00,
2013-12-05 16:35:00,4.9,-0.4,30.23,West,276,6.0,7.0,78,0.00,,,0.00,VWS V14.01,2013-12-05 22:35:00,
2013-12-05 16:40:00,4.7,-0.1,30.23,West,276,4.0,10.0,80,0.00,,,0.00,VWS V14.01,2013-12-05 22:40:00,
2013-12-05 16:45:00,4.6,-0.2,30.23,WNW,293,0.0,10.0,80,0.00,,,0.00,VWS V14.01,2013-12-05 22:45:00,
2013-12-05 16:50:00,4.5,-0.3,30.24,West,276,2.0,10.0,80,0.00,,,0.00,VWS V14.01,2013-12-05 22:50:00,
2013-12-05 16:55:00,4.3,-0.2,30.24,West,259,2.0,10.0,81,0.00,,,0.00,VWS V14.01,2013-12-05 22:55:00,
2013-12-05 17:00:00,4.2,-0.3,30.24,West,260,2.0,10.0,81,0.00,,,0.00,VWS V14.01,2013-12-05 23:00:00,
2013-12-05 17:05:00,4.1,-0.7,30.24,West,265,3.0,14.0,80,0.00,,,0.00,VWS V14.01,2013-12-05 23:05:00,
2013-12-05 17:10:00,4.0,-0.8,30.25,WNW,285,7.0,14.0,80,0.00,,,0.00,VWS V14.01,2013-12-05 23:10:00,
2013-12-05 17:15:00,4.0,-0.8,30.25,West,277,4.0,14.0,80,0.00,,,0.00,VWS V14.01,2013-12-05 23:15:00,
2013-12-05 17:20:00,3.9,-0.9,30.25,WNW,284,3.0,14.0,80,0.00,,,0.00,VWS V14.01,2013-12-05 23:20:00,
2013-12-05 17:25:00,3.8,-1.0,30.25,West,277,3.0,14.0,80,0.00,,,0.00,VWS V14.01,2013-12-05 23:25:00,
2013-12-05 17:30:00,3.6,-1.2,30.26,SW,226,6.0,14.0,80,0.00,,,0.00,VWS V14.01,2013-12-05 23:30:00,
2013-12-05 17:36:00,3.6,-1.2,30.26,WNW,284,3.0,6.0,80,0.00,,,0.00,VWS V14.01,2013-12-05 23:36:00,
2013-12-05 17:41:00,3.5,-1.3,30.26,West,267,0.0,6.0,80,0.00,,,0.00,VWS V14.01,2013-12-05 23:41:00,
2013-12-05 17:46:00,3.4,-1.4,30.27,West,266,4.0,7.0,80,0.00,,,0.00,VWS V14.01,2013-12-05 23:46:00,
2013-12-05 17:51:00,3.3,-1.5,30.27,WSW,256,3.0,8.0,80,0.00,,,0.00,VWS V14.01,2013-12-05 23:51:00,
2013-12-05 17:56:00,3.3,-1.5,30.27,West,280,5.0,8.0,80,0.00,,,0.00,VWS V14.01,2013-12-05 23:56:00,
2013-12-05 18:01:00,3.2,-1.6,30.27,WSW,255,1.0,1.0,80,0.00,,,0.00,VWS V14.01,2013-12-06 00:01:00,
2013-12-05 18:06:00,3.1,-1.7,30.28,West,272,1.0,6.0,80,0.00,,,0.00,VWS V14.01,2013-12-06 00:06:00,
2013-12-05 18:11:00,3.0,-1.8,30.28,West,275,1.0,6.0,80,0.00,,,0.00,VWS V14.01,2013-12-06 00:11:00,
2013-12-05 18:16:00,2.9,-1.9,30.28,WSW,241,8.0,8.0,80,0.00,,,0.00,VWS V14.01,2013-12-06 00:16:00,
2013-12-05 18:21:00,2.8,-2.0,30.29,West,268,5.0,8.0,80,0.00,,,0.00,VWS V14.01,2013-12-06 00:21:00,
2013-12-05 18:26:00,2.8,-1.7,30.29,WSW,239,3.0,8.0,81,0.00,,,0.00,VWS V14.01,2013-12-06 00:26:00,
2013-12-05 18:31:00,2.7,-1.8,30.30,WSW,243,0.0,2.0,81,0.00,,,0.00,VWS V14.01,2013-12-06 00:31:00,
2013-12-05 18:36:00,2.6,-1.9,30.30,WSW,258,1.0,5.0,81,0.00,,,0.00,VWS V14.01,2013-12-06 00:36:00,
2013-12-05 18:41:00,2.6,-1.9,30.30,West,264,0.0,5.0,81,0.00,,,0.00,VWS V14.01,2013-12-06 00:41:00,
2013-12-05 18:46:00,2.5,-2.0,30.31,SW,236,1.0,6.0,81,0.00,,,0.00,VWS V14.01,2013-12-06 00:46:00,
2013-12-05 18:51:00,2.3,-2.2,30.31,West,265,1.0,6.0,81,0.00,,,0.00,VWS V14.01,2013-12-06 00:51:00,
2013-12-05 18:56:00,2.2,-2.0,30.31,WSW,252,0.0,6.0,82,0.00,,,0.00,VWS V14.01,2013-12-06 00:56:00,
2013-12-05 19:01:00,2.1,-2.1,30.32,WSW,253,1.0,2.0,82,0.00,,,0.00,VWS V14.01,2013-12-06 01:01:00,
2013-12-05 19:07:00,2.0,-2.2,30.32,WSW,253,0.0,2.0,82,0.00,,,0.00,VWS V14.01,2013-12-06 01:07:00,
2013-12-05 19:12:00,1.9,-2.3,30.33,SW,215,0.0,2.0,82,0.00,,,0.00,VWS V14.01,2013-12-06 01:12:00,
2013-12-05 19:17:00,1.7,-2.5,30.33,WSW,251,3.0,3.0,82,0.00,,,0.00,VWS V14.01,2013-12-06 01:17:00,
2013-12-05 19:22:00,1.5,-2.7,30.34,WSW,240,0.0,3.0,82,0.00,,,0.00,VWS V14.01,2013-12-06 01:22:00,
2013-12-05 19:27:00,1.3,-2.7,30.34,WSW,238,0.0,4.0,83,0.00,,,0.00,VWS V14.01,2013-12-06 01:27:00,
2013-12-05 19:32:00,1.2,-2.8,30.34,West,264,0.0,4.0,83,0.00,,,0.00,VWS V14.01,2013-12-06 01:32:00,
2013-12-05 19:37:00,1.1,-2.8,30.34,West,260,2.0,4.0,83,0.00,,,0.00,VWS V14.01,2013-12-06 01:37:00,
2013-12-05 19:42:00,1.0,-2.7,30.35,WNW,287,0.0,4.0,84,0.00,,,0.00,VWS V14.01,2013-12-06 01:42:00,
2013-12-05 19:47:00,0.9,-2.8,30.35,WSW,238,0.0,4.0,84,0.00,,,0.00,VWS V14.01,2013-12-06 01:47:00,
2013-12-05 19:52:00,0.9,-2.8,30.35,West,264,0.0,4.0,84,0.00,,,0.00,VWS V14.01,2013-12-06 01:52:00,
2013-12-05 19:57:00,0.9,-2.5,30.35,WSW,258,1.0,6.0,85,0.00,,,0.00,VWS V14.01,2013-12-06 01:57:00,
2013-12-05 20:02:00,0.9,-2.8,30.36,West,270,1.0,4.0,84,0.00,,,0.00,VWS V14.01,2013-12-06 02:02:00,
2013-12-05 20:07:00,0.9,-2.8,30.36,West,268,3.0,4.0,84,0.00,,,0.00,VWS V14.01,2013-12-06 02:07:00,
2013-12-05 20:12:00,0.9,-2.8,30.36,WSW,252,0.0,4.0,84,0.00,,,0.00,VWS V14.01,2013-12-06 02:12:00,
2013-12-05 20:17:00,0.9,-2.8,30.36,WSW,247,0.0,5.0,84,0.00,,,0.00,VWS V14.01,2013-12-06 02:17:00,
2013-12-05 20:22:00,0.8,-2.9,30.36,West,270,1.0,5.0,84,0.00,,,0.00,VWS V14.01,2013-12-06 02:22:00,
2013-12-05 20:27:00,0.6,-3.1,30.36,WSW,250,0.0,5.0,84,0.00,,,0.00,VWS V14.01,2013-12-06 02:27:00,
2013-12-05 20:32:00,0.4,-3.3,30.36,WSW,249,1.0,4.0,84,0.00,,,0.00,VWS V14.01,2013-12-06 02:32:00,
2013-12-05 20:37:00,0.3,-3.4,30.36,WSW,256,0.0,4.0,84,0.00,,,0.00,VWS V14.01,2013-12-06 02:37:00,
2013-12-05 20:42:00,0.2,-3.2,30.36,WSW,254,0.0,4.0,85,0.00,,,0.00,VWS V14.01,2013-12-06 02:42:00,
2013-12-05 20:48:00,0.1,-3.7,30.36,WSW,244,0.0,4.0,84,0.00,,,0.00,VWS V14.01,2013-12-06 02:48:00,
2013-12-05 20:53:00,-0.1,-3.8,30.36,WSW,246,0.0,4.0,84,0.00,,,0.00,VWS V14.01,2013-12-06 02:53:00,
2013-12-05 20:58:00,-0.3,-3.7,30.36,West,269,1.0,4.0,85,0.00,,,0.00,VWS V14.01,2013-12-06 02:58:00,
2013-12-05 21:03:00,-0.3,-3.7,30.36,West,268,1.0,4.0,85,0.00,,,0.00,VWS V14.01,2013-12-06 03:03:00,
2013-12-05 21:08:00,-0.3,-3.7,30.36,West,262,2.0,4.0,85,0.00,,,0.00,VWS V14.01,2013-12-06 03:08:00,
2013-12-05 21:13:00,-0.3,-3.7,30.36,West,268,2.0,6.0,85,0.00,,,0.00,VWS V14.01,2013-12-06 03:13:00,
2013-12-05 21:18:00,-0.3,-3.7,30.37,WSW,242,1.0,8.0,85,0.00,,,0.00,VWS V14.01,2013-12-06 03:18:00,
2013-12-05 21:23:00,-0.3,-3.7,30.37,NW,324,6.0,8.0,85,0.00,,,0.00,VWS V14.01,2013-12-06 03:23:00,
2013-12-05 21:28:00,-0.3,-3.7,30.37,West,262,0.0,8.0,85,0.00,,,0.00,VWS V14.01,2013-12-06 03:28:00,
2013-12-05 21:33:00,-0.3,-3.7,30.37,WSW,252,1.0,3.0,85,0.00,,,0.00,VWS V14.01,2013-12-06 03:33:00,
2013-12-05 21:38:00,-0.3,-3.7,30.37,West,272,1.0,6.0,85,0.00,,,0.00,VWS V14.01,2013-12-06 03:38:00,
2013-12-05 21:43:00,-0.4,-4.1,30.37,SW,231,2.0,6.0,84,0.00,,,0.00,VWS V14.01,2013-12-06 03:43:00,
2013-12-05 21:48:00,-0.5,-4.2,30.38,WSW,243,0.0,6.0,84,0.00,,,0.00,VWS V14.01,2013-12-06 03:48:00,
2013-12-05 21:53:00,-0.6,-4.3,30.38,WSW,240,0.0,6.0,84,0.00,,,0.00,VWS V14.01,2013-12-06 03:53:00,
2013-12-05 21:58:00,-0.7,-4.4,30.38,WSW,257,2.0,6.0,84,0.00,,,0.00,VWS V14.01,2013-12-06 03:58:00,
2013-12-05 22:03:00,-0.9,-4.3,30.38,West,265,1.0,1.0,85,0.00,,,0.00,VWS V14.01,2013-12-06 04:03:00,
2013-12-05 22:08:00,-0.9,-4.6,30.38,SW,233,1.0,2.0,84,0.00,,,0.00,VWS V14.01,2013-12-06 04:08:00,
2013-12-05 22:13:00,-1.0,-4.7,30.39,West,268,0.0,4.0,84,0.00,,,0.00,VWS V14.01,2013-12-06 04:13:00,
2013-12-05 22:18:00,-1.1,-4.8,30.39,West,260,0.0,4.0,84,0.00,,,0.00,VWS V14.01,2013-12-06 04:18:00,
2013-12-05 22:23:00,-1.2,-4.8,30.39,WSW,256,0.0,5.0,84,0.00,,,0.00,VWS V14.01,2013-12-06 04:23:00,
2013-12-05 22:28:00,-1.3,-4.9,30.39,WSW,254,2.0,5.0,84,0.00,,,0.00,VWS V14.01,2013-12-06 04:28:00,
2013-12-05 22:33:00,-1.4,-5.1,30.40,West,259,0.0,1.0,84,0.00,,,0.00,VWS V14.01,2013-12-06 04:33:00,
2013-12-05 22:38:00,-1.4,-5.1,30.40,SW,233,1.0,3.0,84,0.00,,,0.00,VWS V14.01,2013-12-06 04:38:00,
2013-12-05 22:44:00,-1.6,-5.2,30.41,WSW,248,0.0,3.0,84,0.00,,,0.00,VWS V14.01,2013-12-06 04:44:00,
2013-12-05 22:49:00,-1.7,-5.3,30.40,West,263,0.0,3.0,84,0.00,,,0.00,VWS V14.01,2013-12-06 04:49:00,
2013-12-05 22:54:00,-1.7,-5.3,30.40,West,270,0.0,3.0,84,0.00,,,0.00,VWS V14.01,2013-12-06 04:54:00,
2013-12-05 22:59:00,-1.8,-5.2,30.40,West,276,1.0,3.0,85,0.00,,,0.00,VWS V14.01,2013-12-06 04:59:00,
2013-12-05 23:01:00,-1.8,-5.2,30.40,West,262,0.0,3.0,85,0.00,,,0.00,VWS V14.01,2013-12-06 05:01:00,
2013-12-05 23:02:00,-1.8,-5.4,30.40,West,261,0.0,0.0,84,0.00,,,0.00,VWS V14.01,2013-12-06 05:02:00,
2013-12-05 23:03:00,-1.8,-5.4,30.40,West,264,0.0,2.0,84,0.00,,,0.00,VWS V14.01,2013-12-06 05:03:00,
2013-12-05 23:08:00,-1.9,-5.5,30.40,SW,231,0.0,2.0,84,0.00,,,0.00,VWS V14.01,2013-12-06 05:08:00,
2013-12-05 23:13:00,-1.9,-5.5,30.41,West,268,0.0,2.0,84,0.00,,,0.00,VWS V14.01,2013-12-06 05:13:00,
2013-12-05 23:18:00,-2.0,-5.6,30.41,West,260,1.0,2.0,84,0.00,,,0.00,VWS V14.01,2013-12-06 05:18:00,
2013-12-05 23:23:00,-2.1,-5.7,30.41,WSW,244,0.0,4.0,84,0.00,,,0.00,VWS V14.01,2013-12-06 05:23:00,
2013-12-05 23:28:00,-2.1,-5.7,30.42,WSW,247,0.0,4.0,84,0.00,,,0.00,VWS V14.01,2013-12-06 05:28:00,
2013-12-05 23:33:00,-2.2,-5.8,30.42,West,259,0.0,1.0,84,0.00,,,0.00,VWS V14.01,2013-12-06 05:33:00,
2013-12-05 23:38:00,-2.2,-5.8,30.42,West,259,0.0,2.0,84,0.00,,,0.00,VWS V14.01,2013-12-06 05:38:00,
2013-12-05 23:43:00,-2.4,-6.0,30.42,WSW,239,0.0,4.0,84,0.00,,,0.00,VWS V14.01,2013-12-06 05:43:00,
2013-12-05 23:48:00,-2.5,-6.1,30.43,WSW,246,0.0,4.0,84,0.00,,,0.00,VWS V14.01,2013-12-06 05:48:00,
2013-12-05 23:53:00,-2.6,-6.2,30.43,WSW,245,0.0,4.0,84,0.00,,,0.00,VWS V14.01,2013-12-06 05:53:00,
2013-12-05 23:58:00,-2.8,-6.4,30.43,WSW,245,0.0,4.0,84,0.00,,,0.00,VWS V14.01,2013-12-06 05:58:00,